Current weather by "City, St" or "zip code"  
 
Advertise Here

Current Conditions: St. Louis Downtown Airport, IL

Snow Freezing Fog


30.0 F

Last Updated on Jan 27 2021, 11:53 am CST
Humidity: 96%
Wind Speed: NW 10.4 mph
Barometer 30.30 in
Dewpoint: 28.9 F
Visibility: 0.50 mi
Precip: 00.03 in
Heat Index: NA
Wind Chill: 21 F
Current conditions at:

St. Louis Downtown Airport, IL (KCPS)

Lat: 38.56403 Lon: 90.14871

Local Radar Image active severe weather and emergency alerts image image weather storm and storm spotter reports image weather observation monitoring service image
Local
Radar
Active
Alerts
Storm Reports Obs
Monitoring

Sign-up For Email & Text Message Weather Alert Notification Services


Advertise Here

Observation History for St. Louis Downtown Airport, IL


Time Wind
(mph)
Vis
(mi)
Weather Precip (in) Temperature (F) Relative
Humidity
Wind
Chill
(F)
Heat
Index
(F)
Pressure
Air Dwpt altimeter
(in)
sea level
(mb)
Rmks
11:53 am CST NW 10.4 0.50 Snow Freezing Fog 00.03 30.0 28.9 96% 21 NA 30.30 1026.6
10:53 am CST N 9.2 0.75 Light Snow Fog/Mist 00.04 30.0 30.0 100% 22 NA 30.30 1026.6
9:53 am CST NW 8.1 1.75 Light Snow Fog/Mist Trace 30.0 28.9 96% 22 NA 30.27 1025.3
8:53 am CST NE 4.6 1.00 Light Snow Fog/Mist 00.01 30.0 28.9 96% 25 NA 30.22 1023.9
7:53 am CST NE 6.9 3.00 Light Snow Fog/Mist Trace 30.0 28.0 92% 23 NA 30.22 1023.8
6:53 am CST NE 9.2 10.00 Overcast -- 30.0 26.1 85% 22 NA 30.22 1023.9
5:53 am CST NE 6.9 10.00 Overcast -- 30.0 27.0 88% 23 NA 30.22 1023.7
4:53 am CST E 4.6 10.00 Overcast -- 30.0 27.0 88% 25 NA 30.23 1024.0
3:53 am CST NE 5.8 10.00 Overcast -- 30.0 26.1 85% 24 NA 30.22 1023.7
2:53 am CST N 5.8 10.00 Overcast -- 30.0 26.1 85% 24 NA 30.19 1022.8
1:53 am CST NE 8.1 10.00 Overcast -- 30.0 27.0 88% 22 NA 30.18 1022.4
12:53 am CST NE 5.8 10.00 Overcast -- 31.0 26.1 82% 25 NA 30.20 1022.8
11:53 pm CST NE 9.2 10.00 Overcast -- 30.0 26.1 85% 22 NA 30.21 1023.2
10:53 pm CST N 6.9 10.00 Overcast -- 30.0 26.1 85% 23 NA 30.19 1022.7
9:53 pm CST N 8.1 10.00 Overcast -- 31.0 26.1 82% 24 NA 30.19 1022.5
8:53 pm CST N 8.1 10.00 Overcast -- 31.0 26.1 82% 24 NA 30.17 1022.1
7:53 pm CST N 6.9 10.00 Overcast -- 31.0 26.1 82% 24 NA 30.14 1021.1
6:53 pm CST N 10.4 10.00 Overcast -- 32.0 26.1 79% 24 NA 30.12 1020.2
5:53 pm CST NW 9.2 10.00 Overcast -- 32.0 26.1 79% 24 NA 30.10 1019.7
4:53 pm CST NW 12.7 10.00 Overcast -- 32.0 26.1 79% 22 NA 30.08 1019.0
3:53 pm CST NW 15.0 10.00 Overcast -- 34.0 27.0 76% 24 NA 30.06 1018.1
2:53 pm CST NW 13.8 10.00 Overcast -- 35.0 28.9 78% 26 NA 30.03 1017.1
1:53 pm CST W 12.7 10.00 Overcast -- 37.0 30.0 76% 29 NA 30.00 1016.1
12:53 pm CST NW 16.1 10.00 Overcast -- 37.0 30.9 79% 28 NA 29.97 1015.3

Regional Weather Observation


St. Louis Regional Airport, IL (KALN)

Snow
30.0 F

St. Louis Lambert International Airport, MO (KSTL)

Light Snow Fog/Mist
30.0 F

St. Louis Downtown Airport, IL (KCPS)

Snow Freezing Fog
30.0 F

St. Louis, Spirit Of St. Louis Airport, MO (KSUS)

Light Snow
29.0 F

Belleville, Scott AFB/MidAmerica Airport, IL (KBLV)

Overcast
37.0 F

Washington Regional Airport, MO (KFYG)

Light Snow
30.0 F